TimeCDT,TemperatureF,Dew PointF,Humidity,Sea Level PressureIn,VisibilityMPH,Wind Direction,Wind SpeedMPH,Gust SpeedMPH,PrecipitationIn,Events,Conditions,WindDirDegrees,DateUTC
12:53 AM,80.1,63.0,56,29.98,10.0,South,8.1,-,N/A,,Clear,190,2013-07-08 05:53:00
1:53 AM,79.0,63.0,58,29.98,10.0,SSW,10.4,-,N/A,,Clear,200,2013-07-08 06:53:00
2:53 AM,78.1,63.0,60,29.97,10.0,SSW,9.2,-,N/A,,Clear,200,2013-07-08 07:53:00
3:53 AM,77.0,63.0,62,29.98,10.0,SSW,6.9,-,N/A,,Clear,210,2013-07-08 08:53:00
4:53 AM,75.9,64.0,67,29.99,10.0,SSW,8.1,-,N/A,,Clear,210,2013-07-08 09:53:00
5:53 AM,77.0,63.0,62,29.99,10.0,SW,9.2,-,N/A,,Clear,220,2013-07-08 10:53:00
6:53 AM,75.9,64.0,67,30.00,10.0,SSW,6.9,-,N/A,,Clear,200,2013-07-08 11:53:00
7:53 AM,75.9,64.9,69,30.00,10.0,SSW,9.2,-,N/A,,Clear,210,2013-07-08 12:53:00
8:53 AM,78.1,66.0,66,30.01,10.0,SSW,8.1,-,N/A,,Clear,210,2013-07-08 13:53:00
9:53 AM,80.1,66.9,64,30.02,10.0,SW,10.4,-,N/A,,Clear,220,2013-07-08 14:53:00
10:53 AM,81.0,68.0,65,30.03,10.0,SSW,8.1,-,N/A,,Partly Cloudy,200,2013-07-08 15:53:00
11:53 AM,86.0,69.1,57,30.02,10.0,SW,11.5,18.4,N/A,,Clear,220,2013-07-08 16:53:00
12:53 PM,86.0,69.1,57,30.02,10.0,SSW,11.5,17.3,N/A,,Clear,210,2013-07-08 17:53:00
1:53 PM,91.0,69.1,48,30.01,10.0,South,9.2,19.6,N/A,,Clear,190,2013-07-08 18:53:00
2:53 PM,91.9,69.1,47,30.00,10.0,South,10.4,-,N/A,,Clear,190,2013-07-08 19:53:00
3:53 PM,91.9,69.1,47,29.99,10.0,South,12.7,17.3,N/A,,Clear,170,2013-07-08 20:53:00
4:53 PM,91.0,66.9,45,29.99,10.0,SSW,6.9,-,N/A,,Clear,200,2013-07-08 21:53:00
5:53 PM,90.0,66.0,45,29.98,10.0,South,9.2,-,N/A,,Clear,190,2013-07-08 22:53:00
6:53 PM,91.0,66.9,45,29.97,10.0,SSW,9.2,-,N/A,,Clear,200,2013-07-08 23:53:00
7:53 PM,89.1,66.9,48,29.96,10.0,South,6.9,-,N/A,,Clear,190,2013-07-09 00:53:00
8:53 PM,87.1,66.9,51,29.96,10.0,South,8.1,-,N/A,,Clear,180,2013-07-09 01:53:00
9:53 PM,84.9,66.9,55,29.99,10.0,South,8.1,-,N/A,,Clear,190,2013-07-09 02:53:00
10:53 PM,84.0,66.9,56,30.00,10.0,South,8.1,-,N/A,,Clear,190,2013-07-09 03:53:00
11:53 PM,82.9,66.0,56,29.98,10.0,South,8.1,-,N/A,,Clear,190,2013-07-09 04:53:00